Weather in Sofiivka

Ukraine / Zaporizhia Region     48°02′03″N   35°57′28″E
temp.,
°C
wind,
m/s
gust,
m/s
humid.,
%
clouds,
%
prec.,
mm/h
press.,
hPa
HPBL,
m
16 september, thu
thu1600:00+13n35440 0.0 101782
03:00+12n34463 0.0 101759
06:00+10n334877 0.0 101845
09:00+16n4535100 0.0 1018407
12:00+20n5530100 0.0 10181242
15:00+22n44245 0.0 10161842
18:00+20n35271 0.0 1017134
21:00+14ne33391 0.0 101820
17 september, fri
fri1700:00+12ene22450 0.0 101817
03:00+11ene2251100 0.0 101810
06:00+10e22535 0.0 101810
09:00+17e11367 0.0 1017262
12:00+22sse11255 0.0 10161566
15:00+23sw2222100 0.0 10151901
18:00+21sw1128100 0.0 101411
21:00+17ssw003464 0.0 101411
18 september, sat
sat1800:00+14ssw36565 0.0 1014108
03:00+14ssw345655 0.0 101450
06:00+13sse335921 0.0 101447
09:00+19sse564532 0.0 1013472
12:00+24s6630100 0.0 10121757
15:00+26ssw7728100 0.0 10112505
18:00+21sw5839100 0.0 1011640
21:00+19sse3550100 0.0 1012154
19 september, sun
sun1900:00+17se2572100 0.1 1012155
03:00+16wnw1191100 1.6 101177
06:00+17ese3587100 1.6 1011186
09:00+18s347587 1.7 1011464
12:00+15s348499 3.3 1011274
15:00+16s2481100 4.4 1010229
18:00+16ese2287100 2.0 1010207
21:00+14ese22940 2.1 100936
20 september, mon
mon2000:00+14sse22924 0.0 100818
03:00+13w11932 0.0 100811
06:00+13wsw229193 0.0 100821
09:00+17wsw467638 0.1 1009378
12:00+22wsw57435 0.0 10091459
15:00+21sw574698 0.0 1009747
18:00+17ssw51074100 0.2 1009645
21:00+16ssw5980100 0.4 1009571